Columbia, MO

1:08 PM CDT on June 25, 2017 (GMT -0500)
Columbia Regional

Weather History for KCOU - April, 2013

Change the Weather History Date:

Tuesday, April 16, 2013

  Actual Average Record
Temperature  
Mean Temperature 45 °F 55 °F  
Max Temperature 48 °F 66 °F 86 °F (1964)
Min Temperature 42 °F 44 °F 26 °F (1962)
Degree Days  
Heating Degree Days 20 10  
Month to date heating degree days 214 203  
Since 1 July heating degree days 4611 4785  
Cooling Degree Days 0 1  
Month to date cooling degree days 11 9  
Year to date cooling degree days 12 12  
Moisture  
Dew Point 41 °F    
Average Humidity 87    
Maximum Humidity 92    
Minimum Humidity 82    
Precipitation  
Precipitation 0.24 in 0.16 in 1.72 in (1960)
Month to date precipitation 4.44 2.17  
Year to date precipitation 13.97 9.25  
Snow  
Snow 0.00 in 0.00 in T in (1999)
Month to date snowfall 0.0 0.2  
Since 1 July snowfall 35.0 18.0  
Snow Depth 0.00 in    
Sea Level Pressure  
Sea Level Pressure 30.09 in    
Wind  
Wind Speed 12 mph (NE)    
Max Wind Speed 22 mph    
Max Gust Speed 28 mph    
Visibility 8 miles    
Events Rain , Thunderstorm    
T = Trace of Precipitation, MM = Missing Value Source: NWS Daily Summary

Daily Weather History Graph

Daily Weather History Graph

Search for Another Location

Airport or City:

Trip Planner

Search our weather history database for the weather conditions in past years. The results will help you decide how hot, cold, wet, or windy it might be!

Date:

Astronomy

Apr. 16, 2013 Rise Set
Actual Time 6:30 AM CDT 7:47 PM CDT
Civil Twilight 6:03 AM CDT 8:14 PM CDT
Nautical Twilight 5:30 AM CDT 8:47 PM CDT
Astronomical Twilight 4:55 AM CDT 9:22 PM CDT
Moon 10:51 AM CDT (4/16) 12:43 AM CDT (4/16)
Length of Visible Light 14h 11m
Length of Day
13h 16m
Waxing Crescent, 33% of the Moon is Illuminated
Apr 16
Waxing Crescent
Apr 18
First Quarter
Apr 25
Full
May 2
Last Quarter
May 9
New

Hourly Weather History & Observations

Time (CDT) Temp. Windchill Dew Point Humidity Pressure Visibility Wind Dir Wind Speed Gust Speed Precip Events Conditions
12:11 AM 46.0 °F 39.3 °F 44.1 °F 93% 29.99 in 8.0 mi North 16.1 mph - 0.07 in Rain , Thunderstorm Light Rain
12:39 AM 46.0 °F 39.6 °F 41.0 °F 83% 29.99 in 10.0 mi NE 15.0 mph 20.7 mph 0.07 in   Overcast
12:54 AM 46.0 °F 39.9 °F 41.0 °F 83% 29.99 in 10.0 mi NNE 13.8 mph - 0.07 in Rain , Thunderstorm Light Rain
1:15 AM 45.0 °F 38.2 °F 39.0 °F 80% 29.99 in 10.0 mi NE 15.0 mph - 0.00 in   Overcast
1:34 AM 44.1 °F 38.1 °F 39.9 °F 85% 30.00 in 9.0 mi NNE 11.5 mph - 0.01 in Rain , Thunderstorm Light Rain
1:54 AM 44.1 °F 38.6 °F 41.0 °F 89% 30.01 in 10.0 mi North 10.4 mph - 0.02 in Rain Light Rain
2:35 AM 43.0 °F 35.7 °F 41.0 °F 93% 29.99 in 10.0 mi NNE 15.0 mph - 0.02 in Rain Light Rain
2:46 AM 43.0 °F 35.4 °F 39.9 °F 89% 29.99 in 10.0 mi NNE 16.1 mph - 0.02 in   Mostly Cloudy
2:54 AM 43.0 °F 35.4 °F 39.9 °F 89% 29.99 in 10.0 mi NNE 16.1 mph - 0.02 in   Scattered Clouds
3:54 AM 43.0 °F 36.4 °F 39.0 °F 86% 30.03 in 10.0 mi NNE 12.7 mph - N/A   Overcast
4:54 AM 43.0 °F 35.7 °F 39.0 °F 86% 30.04 in 10.0 mi NNE 15.0 mph - N/A   Overcast
5:54 AM 43.0 °F 35.1 °F 37.9 °F 82% 30.06 in 10.0 mi NNE 17.3 mph - N/A   Overcast
6:22 AM 43.0 °F 36.0 °F 37.0 °F 80% 30.05 in 10.0 mi NE 13.8 mph 23.0 mph 0.00 in Rain , Thunderstorm Light Rain
6:51 AM 42.8 °F 35.8 °F 37.4 °F 81% 30.09 in 10.0 mi NNE 13.8 mph 23.0 mph 0.00 in Rain Light Rain
6:54 AM 42.8 °F 35.1 °F 37.4 °F 81% 30.08 in 10.0 mi NE 16.1 mph - N/A Rain Light Rain
7:54 AM 43.0 °F 37.2 °F 39.0 °F 86% 30.12 in 10.0 mi NNE 10.4 mph - 0.00 in   Overcast
8:28 AM 42.1 °F 35.7 °F 37.9 °F 85% 30.17 in 10.0 mi NNW 11.5 mph 20.7 mph 0.01 in Rain , Thunderstorm Light Thunderstorms and Rain
8:54 AM 42.1 °F 33.6 °F 37.9 °F 85% 30.08 in 3.0 mi East 18.4 mph 27.6 mph 0.02 in Rain , Thunderstorm Light Thunderstorms and Rain
8:58 AM 42.1 °F 33.1 °F 37.9 °F 85% 30.06 in 3.0 mi ENE 20.7 mph 27.6 mph 0.00 in Rain Light Rain
9:10 AM 42.1 °F 34.9 °F 39.0 °F 89% 30.12 in 7.0 mi North 13.8 mph - 0.01 in Rain Light Rain
9:54 AM 43.0 °F 36.0 °F 39.0 °F 86% 30.13 in 10.0 mi NNE 13.8 mph - 0.04 in   Overcast
10:01 AM 42.1 °F 34.5 °F 39.0 °F 89% 30.13 in 10.0 mi NE 15.0 mph - 0.00 in Rain Light Rain
10:28 AM 43.0 °F 35.7 °F 39.0 °F 86% 30.12 in 10.0 mi NE 15.0 mph - 0.02 in Rain Light Rain
10:48 AM 42.8 °F 36.6 °F 39.2 °F 87% 30.12 in 2.5 mi NNE 11.5 mph 21.9 mph 0.10 in Rain Light Rain
10:54 AM 43.0 °F 36.4 °F 39.9 °F 89% 30.13 in 7.0 mi NNE 12.7 mph - 0.11 in Rain Light Rain
11:27 AM 43.0 °F 36.8 °F 39.9 °F 89% 30.13 in 10.0 mi NNE 11.5 mph - 0.00 in   Overcast
11:54 AM 43.0 °F 36.8 °F 39.9 °F 89% 30.15 in 6.0 mi NE 11.5 mph - 0.00 in Rain Light Rain
12:54 PM 44.1 °F 37.7 °F 41.0 °F 89% 30.13 in 4.0 mi NE 12.7 mph - 0.00 in   Overcast
1:54 PM 45.0 °F 38.5 °F 42.1 °F 90% 30.13 in 3.0 mi NNE 13.8 mph - 0.03 in   Overcast
2:36 PM 45.0 °F 40.1 °F 42.1 °F 90% 30.12 in 2.5 mi ENE 9.2 mph - 0.00 in   Overcast
2:54 PM 45.0 °F 38.5 °F 43.0 °F 93% 30.12 in 2.5 mi ENE 13.8 mph - 0.00 in   Overcast
3:54 PM 45.0 °F 39.3 °F 43.0 °F 93% 30.11 in 2.0 mi ENE 11.5 mph - N/A   Overcast
4:06 PM 45.0 °F 40.1 °F 43.0 °F 93% 30.10 in 1.8 mi ENE 9.2 mph - N/A   Overcast
4:22 PM 45.0 °F 39.7 °F 43.0 °F 93% 30.11 in 2.0 mi NE 10.4 mph - N/A   Overcast
4:38 PM 45.0 °F 39.7 °F 42.1 °F 90% 30.11 in 3.0 mi NE 10.4 mph - N/A   Overcast
4:54 PM 45.0 °F 41.2 °F 43.0 °F 93% 30.12 in 2.0 mi NE 6.9 mph - N/A   Overcast
5:24 PM 45.0 °F 39.3 °F 42.1 °F 90% 30.11 in 3.0 mi NE 11.5 mph - N/A   Overcast
5:40 PM 45.0 °F 39.7 °F 42.1 °F 90% 30.11 in 5.0 mi NE 10.4 mph - N/A   Overcast
5:54 PM 45.0 °F 39.3 °F 42.1 °F 90% 30.13 in 10.0 mi NE 11.5 mph - N/A   Overcast
6:54 PM 46.0 °F 41.0 °F 42.1 °F 86% 30.12 in 10.0 mi NE 10.4 mph - N/A   Overcast
7:40 PM 46.0 °F 41.9 °F 42.1 °F 86% 30.11 in 10.0 mi ENE 8.1 mph - N/A   Overcast
7:54 PM 46.0 °F 41.4 °F 42.1 °F 86% 30.13 in 10.0 mi East 9.2 mph - N/A   Overcast
8:54 PM 46.9 °F - 42.1 °F 83% 30.13 in 10.0 mi East 10.4 mph - N/A   Overcast
9:54 PM 46.9 °F - 42.1 °F 83% 30.14 in 10.0 mi East 9.2 mph - N/A   Overcast
10:54 PM 46.9 °F - 43.0 °F 86% 30.12 in 10.0 mi East 10.4 mph - N/A   Overcast
11:54 PM 46.9 °F - 43.0 °F 86% 30.12 in 10.0 mi East 10.4 mph - N/A   Overcast